FW4557 Weather Reports


time (UTC)temp
C
wind
direction
speed
KPH
gust
KPH
rain 1hr
cm
rain 24hr
cm
rain mn
cm
humidity
%
barometer
mb
20210723165024 34 198 11.3 27.4 0.00 0.00 0.00 23 1020.9
20210723164024 34 187 16.1 27.4 0.00 0.00 0.00 22 1020.9
20210723163024 34 199 12.9 25.7 0.00 0.00 0.00 22 1020.9
20210723162023 35 177 19.3 25.7 0.00 0.00 0.00 22 1020.9
20210723161023 35 179 19.3 27.4 0.00 0.00 0.00 21 1020.9
20210723160023 35 181 24.1 25.7 0.00 0.00 0.00 21 1020.9
20210723155023 36 201 24.1 27.4 0.00 0.00 0.00 21 1020.9
20210723154022 35 165 16.1 27.4 0.00 0.00 0.00 22 1020.9
20210723153022 35 201 16.1 29.0 0.00 0.00 0.00 22 1020.9
20210723152021 34 176 17.7 27.4 0.00 0.00 0.00 23 1020.9
20210723151021 33 177 19.3 29.0 0.00 0.00 0.00 25 1020.9
20210723150021 34 150 24.1 29.0 0.00 0.00 0.00 24 1020.9
20210723145020 32 170 20.9 27.4 0.00 0.00 0.00 27 1020.9
20210723144021 32 163 19.3 27.4 0.00 0.00 0.00 27 1020.9
20210723143020 32 197 17.7 25.7 0.00 0.00 0.00 27 1020.9
20210723142020 32 185 11.3 24.1 0.00 0.00 0.00 27 1020.9
20210723141020 31 199 19.3 27.4 0.00 0.00 0.00 29 1020.9
20210723140019 30 174 22.5 29.0 0.00 0.00 0.00 31 1020.9
20210723135019 30 183 16.1 25.7 0.00 0.00 0.00 33 1020.9
20210723134018 30 170 11.3 22.5 0.00 0.00 0.00 35 1020.9
20210723133018 30 198 11.3 20.9 0.00 0.00 0.00 39 1020.9
20210723132018 29 172 20.9 20.9 0.00 0.00 0.00 55 1020.9
20210723131018 28 183 16.1 24.1 0.00 0.00 0.00 66 1020.9
20210723130018 26 189 16.1 20.9 0.00 0.00 0.00 68 1020.9
20210723125018 26 173 16.1 24.1 0.00 0.00 0.00 69 1019.9
20210723124017 25 179 16.1 22.5 0.00 0.00 0.00 69 1019.9
20210723123017 25 166 14.5 19.3 0.00 0.00 0.00 69 1019.9
20210723122016 25 171 0.0 8.0 0.00 0.00 0.00 69 1019.9
20210723121016 24 171 0.0 14.5 0.00 0.00 0.00 69 1019.9
20210723120015 24 181 4.8 11.3 0.00 0.00 0.00 69 1019.9
20210723115016 24 172 0.0 16.1 0.00 0.00 0.00 69 1019.9
20210723114015 24 199 0.0 20.9 0.00 0.00 0.00 69 1019.9
20210723113015 24 157 0.0 6.4 0.00 0.00 0.00 70 1019.9
20210723112015 24 174 0.0 14.5 0.00 0.00 0.00 70 1019.9
20210723111015 24 179 0.0 6.4 0.00 0.00 0.00 70 1019.9
20210723110014 24 186 0.0 16.1 0.00 0.00 0.00 70 1019.9
20210723105014 24 169 4.8 11.3 0.00 0.00 0.00 70 1019.9
20210723104014 24 171 0.0 20.9 0.00 0.00 0.00 70 1019.9
20210723103013 24 162 8.0 8.0 0.00 0.00 0.00 71 1019.9
20210723102013 24 167 0.0 8.0 0.00 0.00 0.00 71 1019.9
20210723101013 24 148 0.0 0.0 0.00 0.00 0.00 71 1019.9
20210723100012 24 182 0.0 0.0 0.00 0.00 0.00 71 1019.9
20210723095012 24 199 0.0 6.4 0.00 0.00 0.00 71 1019.9
20210723094012 24 214 0.0 8.0 0.00 0.00 0.00 71 1019.9
20210723093012 24 184 0.0 14.5 0.00 0.00 0.00 71 1019.9
20210723092011 24 173 4.8 19.3 0.00 0.00 0.00 71 1019.9
20210723091011 24 182 0.0 9.7 0.00 0.00 0.00 71 1019.9
20210723090011 24 165 0.0 4.8 0.00 0.00 0.00 71 1019.9
20210723085010 24 170 0.0 0.0 0.00 0.00 0.00 71 1019.9
20210723084009 24 189 0.0 4.8 0.00 0.00 0.00 71 1019.9
20210723083009 24 213 0.0 19.3 0.00 0.00 0.00 71 1019.9
20210723082009 24 178 11.3 20.9 0.00 0.00 0.00 71 1019.9
20210723081009 24 188 17.7 22.5 0.00 0.00 0.00 71 1019.9
20210723080038 24 186 17.7 24.1 0.00 0.00 0.00 72 1019.9
20210723075039 24 172 22.5 22.5 0.00 0.00 0.00 72 1019.9
20210723074038 24 169 11.3 24.1 0.00 0.00 0.00 72 1019.9
20210723073038 24 170 19.3 24.1 0.00 0.00 0.00 72 1019.9
20210723072037 24 201 12.9 22.5 0.00 0.00 0.00 72 1019.9
20210723071037 24 174 17.7 22.5 0.00 0.00 0.00 72 1019.9
20210723070037 23 166 16.1 22.5 0.00 0.00 0.00 71 1019.9
20210723065037 23 178 0.0 0.0 0.00 0.00 0.00 71 1019.9
20210723064036 23 181 0.0 19.3 0.00 0.00 0.00 71 1019.9
20210723063036 23 166 4.8 17.7 0.00 0.00 0.00 71 1019.9
20210723062035 23 145 0.0 0.0 0.00 0.00 0.00 71 1019.9
20210723061035 23 162 0.0 0.0 0.00 0.00 0.00 71 1019.9
20210723060035 23 161 0.0 0.0 0.00 0.00 0.00 71 1019.9
20210723055035 23 168 0.0 0.0 0.00 0.00 0.00 71 1019.9
20210723054035 23 152 0.0 0.0 0.00 0.00 0.00 70 1019.9
20210723053034 22 162 0.0 16.1 0.00 0.00 0.00 70 1019.9
20210723052034 22 148 0.0 11.3 0.00 0.00 0.00 70 1019.9
20210723051034 22 173 0.0 0.0 0.00 0.00 0.00 70 1019.9
20210723050033 22 182 0.0 16.1 0.00 0.00 0.00 70 1019.9
20210723045033 22 152 0.0 0.0 0.00 0.00 3.45 70 1019.9
20210723044033 22 143 0.0 12.9 0.00 0.00 3.45 70 1019.9
20210723043032 22 129 0.0 16.1 0.00 0.00 3.45 70 1019.9
20210723042032 22 115 0.0 14.5 0.00 0.00 3.45 70 1019.9
20210723041032 22 149 0.0 0.0 0.00 0.00 3.45 70 1019.9
20210723040031 22 155 0.0 16.1 0.00 0.00 3.45 70 1019.9
20210723035031 22 166 0.0 12.9 0.00 0.00 3.45 70 1019.9
20210723034031 22 157 0.0 12.9 0.00 0.00 3.45 70 1019.9
20210723033031 22 160 11.3 11.3 0.00 0.00 3.45 70 1019.9
20210723032030 22 156 9.7 12.9 0.00 0.00 3.45 70 1019.9
20210723031030 22 134 9.7 14.5 0.00 0.00 3.45 70 1019.9
20210723030030 22 125 12.9 16.1 0.00 0.00 3.45 70 1019.9
20210723025029 22 129 12.9 16.1 0.00 0.00 3.45 71 1019.9
20210723024029 22 142 8.0 12.9 0.00 0.00 3.45 71 1019.9
20210723023029 22 143 11.3 12.9 0.00 0.00 3.45 72 1019.9
20210723022028 22 135 12.9 16.1 0.00 0.00 3.45 72 1018.9
20210723021028 22 138 11.3 16.1 0.00 0.00 3.45 72 1018.9
20210723020028 22 135 16.1 17.7 0.00 0.00 3.45 73 1018.9
20210723015028 22 124 12.9 17.7 0.00 0.00 3.45 73 1018.9
20210723014027 22 127 9.7 16.1 0.00 0.00 3.45 73 1018.9
20210723013027 22 124 11.3 17.7 0.00 0.00 3.45 74 1018.9
20210723012027 22 137 16.1 17.7 0.00 0.00 3.45 74 1018.9
20210723011027 22 107 11.3 19.3 0.00 0.00 3.45 74 1018.9
20210723010026 22 120 12.9 20.9 0.00 0.00 3.45 74 1019.9
20210723005026 22 129 16.1 19.3 0.10 0.00 3.45 74 1019.9
20210723004026 22 122 12.9 17.7 0.20 0.00 3.45 74 1019.9
20210723003025 22 115 14.5 17.7 0.20 0.00 3.45 74 1019.9
20210723002025 21 129 9.7 12.9 0.30 0.00 3.45 74 1019.9
20210723001024 21 96 0.0 0.0 0.30 0.00 3.45 74 1019.9
20210723000025 22 94 0.0 8.0 0.30 0.00 3.45 74 1020.9
20210722235024 22 133 0.0 9.7 0.30 0.00 3.35 73 1020.9
20210722234024 22 171 0.0 6.4 0.30 0.00 3.25 73 1020.9
20210722233024 21 156 0.0 8.0 0.30 0.00 3.25 73 1020.9
20210722232023 21 132 8.0 16.1 0.20 0.00 3.15 73 1019.9
20210722231023 21 117 12.9 20.9 0.20 0.00 3.15 72 1019.9
20210722230023 22 104 17.7 22.5 0.20 0.00 3.15 71 1020.9
20210722225023 22 113 19.3 37.0 0.20 0.00 3.05 70 1020.9
20210722224022 22 121 22.5 37.0 0.10 0.00 2.95 67 1020.9
20210722223022 22 173 24.1 30.6 0.10 0.00 2.95 68 1019.9
20210722222021 22 120 8.0 11.3 0.10 0.00 2.95 70 1018.9
20210722221021 22 86 8.0 11.3 0.10 0.00 2.95 70 1018.9
20210722220021 22 356 8.0 8.0 0.10 0.00 2.95 70 1019.9
20210722215020 22 75 0.0 0.0 0.30 0.00 2.84 71 1020.9
20210722214021 22 134 0.0 4.8 0.81 0.00 2.84 71 1020.9
20210722213020 22 145 0.0 14.5 2.54 0.00 2.84 70 1019.9
20210722212020 22 316 0.0 11.3 2.54 0.00 2.84 70 1019.9
20210722211019 22 327 0.0 12.9 2.54 0.00 2.84 69 1019.9
20210722210019 21 8 11.3 29.0 2.54 0.00 2.84 66 1020.9
20210722205019 22 304 19.3 38.6 2.24 0.00 2.54 62 1019.9
20210722204019 22 351 8.0 77.2 1.73 0.00 2.03 46 1019.9
20210722203018 29 150 33.8 49.9 0.00 0.00 0.30 30 1019.9
20210722202018 32 111 11.3 20.9 0.00 0.00 0.30 27 1018.9
20210722201018 35 114 17.7 17.7 0.00 0.00 0.30 22 1018.9
20210722200017 35 167 0.0 12.9 0.30 0.00 0.30 20 1019.9
20210722195017 35 175 8.0 14.5 0.30 0.00 0.30 26 1019.9
20210722194017 33 203 8.0 9.7 0.30 0.00 0.30 29 1019.9
20210722193017 32 258 6.4 12.9 0.30 0.00 0.30 34 1019.9
20210722192016 30 259 8.0 12.9 0.30 0.00 0.30 33 1020.9
20210722191016 30 232 11.3 29.0 0.30 0.00 0.30 27 1020.9
20210722190016 32 198 16.1 20.9 0.00 0.00 0.00 22 1019.9
20210722185016 33 186 12.9 19.3 0.00 0.00 0.00 21 1020.9
20210722184015 37 160 9.7 16.1 0.00 0.00 0.00 19 1020.9
20210722183015 35 193 12.9 17.7 0.00 0.00 0.00 21 1020.9
20210722182014 35 201 16.1 20.9 0.00 0.00 0.00 21 1020.9
20210722181014 34 174 17.7 27.4 0.00 0.00 0.00 21 1020.9
20210722180013 36 208 0.0 0.0 0.00 0.00 0.00 20 1020.9
20210722175013 35 176 0.0 22.5 0.00 0.00 0.00 20 1021.9
20210722174013 35 227 8.0 20.9 0.00 0.00 0.00 21 1021.9
20210722173012 36 166 16.1 20.9 0.00 0.00 0.00 20 1021.9
20210722172012 35 187 14.5 24.1 0.00 0.00 0.00 21 1021.9
20210722171012 34 169 22.5 22.5 0.00 0.00 0.00 22 1021.9
20210722170012 33 176 16.1 17.7 0.00 0.00 0.00 24 1021.9